Flag for Colombia Weather past 2 weeks in Santa Marta, Colombia

Now
90 °F

Passing clouds.


Feels Like: 100 °F
Forecast: 79 / 87 °F
Wind: 12 mph from Northeast

Location: Santa Marta / Simon Bolivar

Current Time: Mar 3, 2015 at 1:57:57 PM

Latest Report: Mar 3, 2015 at 1:00 PM


Visibility: N/A

Pressure: 29.80 "Hg

Humidity: 63%

Dew point: 75 °F

Location of Santa MartaLocation

Historic Weather in Santa Marta — Graph

°F

Santa Marta temperature yesterday

Maximum temperature yesterday: 93 °F (at 2:00 PM)
Minimum temperature yesterday: 81 °F (at 6:00 AM)
Average temperature yesterday: 86 °F

Past Weeks' High & Low Weather Summary

 TemperatureHumidityPressure
High97 °F (Feb 22, 3:00 PM)89% (Feb 18, 6:00 AM)29.97 "Hg (Feb 18, 6:00 AM)
Low73 °F (Mar 3, 6:00 AM)39% (Feb 22, 3:00 PM)29.72 "Hg (Feb 16, 4:00 PM)
Average86 °F64%29.83 "Hg
* Reported Feb 16 12:00 Noon — Mar 3 12:00 Noon, Santa Marta, Weather by CustomWeather, © 2015

Note: Actual official high and low records may vary slightly from our data, if they occured in-between our weather recording intervals... More about our weather records

Advertising

Santa Marta weather history for previous 24 hours

 ConditionsComfort  
Time TempWeatherWind HumidityBarometerVisibility
12:00 PM
Tue, Mar 3
88 °FPassing clouds.7 mph62%29.85 "HgN/A
11:00 AM86 °FPassing clouds.9 mph66%29.88 "HgN/A
10:00 AM86 °FPassing clouds.7 mph66%29.90 "HgN/A
9:00 AM84 °FPassing clouds.7 mph62%29.88 "HgN/A
8:00 AM82 °FPassing clouds.7 mph66%29.87 "HgN/A
7:00 AM75 °FPassing clouds.No wind83%29.86 "HgN/A
6:00 AM73 °FPassing clouds.No wind78%29.83 "HgN/A
10:00 PM
Mon, Mar 2
84 °FPassing clouds.7 mph58%29.83 "HgN/A
9:00 PM84 °FPassing clouds.14 mph58%29.83 "HgN/A
8:00 PM84 °FPassing clouds.21 mph58%29.80 "HgN/A
7:00 PM84 °FPassing clouds.18 mph58%29.80 "HgN/A
6:00 PM84 °FPassing clouds.18 mph62%29.77 "HgN/A
5:00 PM88 °FPassing clouds.16 mph55%29.77 "HgN/A
4:00 PM91 °FPassing clouds.14 mph49%29.77 "HgN/A
3:00 PM93 °FScattered clouds.14 mph47%29.77 "HgN/A
2:00 PM93 °FScattered clouds.14 mph47%29.80 "HgN/A
1:00 PM90 °FScattered clouds.5 mph55%29.86 "HgN/A
Weather by CustomWeather, © 2015

See weather overviewHow to use our weather pages